SCP
0 0 0 0 0 0 0 0 0 0 0 0 0 0 0 0 0 0 0 0 0 0 0 0 0 0 0 0 0 0 0 0 0 0 0 -0 -0 -0 -0 -0 0 0 -0 -0 -0 -0 -0 0 0
0 0 0 0 0 0 0 0 0 0 0 0 0 0 0 0 0 0 0 0 0 0 0 0 0 0 0 0 0 0 0 0 0 0 0 0 0 0 0 0 0 0 -0 -0 -0 -0 0 0 0
0 0 0 0 0 0 0 0 0 0 0 0 0 0 0 0 0 0 0 0 0 0 0 0 1 0 0 0 0 0 0 0 0 0 0 0 0 0 0 0 0 0 0 0 0 0 0 0 0
0 0 0 0 0 0 0 0 0 0 0 0 0 0 0 0 0 0 0 0 0 0 0 0 0 0 1 1 0 0 0 0 0 0 0 0 0 0 0 0 0 0 0 0 0 0 0 0 0
0 0 0 0 0 0 0 0 0 0 0 0 0 0 0 0 0 1 0 1 1 0 0 0 0 0 1 1 1 0 0 0 0 0 0 0 0 0 0 0 0 0 0 0 0 0 0 0 0
0 0 0 0 0 0 0 0 0 0 0 0 0 0 0 0 0 1 1 1 0 0 1 1 1 1 1 1 1 0 0 0 0 0 0 0 0 0 0 0 0 0 0 0 0 0 0 0 0
0 0 0 0 0 0 0 0 0 0 0 0 0 0 0 0 0 1 1 1 1 1 1 1 1 1 1 1 1 0 0 0 0 0 0 0 0 0 0 0 0 0 0 0 0 0 0 0 0
0 0 0 0 0 0 0 0 0 0 0 0 0 0 0 0 0 0 1 1 1 1 1 1 1 1 0 0 0 0 0 0 0 0 0 0 0 0 0 0 0 0 0 0 0 0 0 0 0
0 0 0 0 0 0 0 0 0 0 0 0 0 0 0 0 0 1 1 1 1 1 1 1 1 0 0 0 0 0 0 0 0 0 0 0 0 0 0 0 0 0 0 0 0 0 0 0 0
0 0 0 0 0 0 0 0 0 0 0 0 0 0 1 1 1 1 1 1 1 1 1 1 0 0 0 0 0 0 0 0 0 0 0 0 0 0 0 0 0 0 0 0 0 0 0 0 0
0 0 0 0 0 0 0 0 0 0 0 0 0 0 1 1 1 1 0 1 1 1 0 0 0 0 0 0 0 0 0 0 0 0 0 0 0 0 0 0 0 0 0 0 0 0 0 0 0
0 0 0 0 0 0 0 -0 0 0 0 0 0 0 0 0 0 1 1 1 1 0 0 0 0 0 0 0 0 0 0 0 0 0 0 0 0 0 0 0 0 0 0 0 0 0 0 0 0
0 -0 0 0 0 -0 -0 -0 -0 -0 0 0 0 0 0 0 0 0 0 0 0 1 0 0 0 0 0 0 0 0 0 0 0 0 0 0 0 0 0 0 0 0 0 0 0 0 0 0 0
0 0 -0 -0 -0 0 0 0 0 -0 0 0 0 0 0 0 0 0 0 0 0 1 1 0 0 0 0 0 0 0 0 0 0 0 0 0 0 0 0 0 0 0 0 0 0 0 0 0 0
0 0 -0 -0 0 0 0 0 0 0 0 0 0 0 0 0 0 0 0 0 0 1 0 0 0 0 0 0 0 0 0 0 0 0 0 0 0 0 0 0 0 0 0 0 0 0 0 0 0
0 0 0 0 0 0 0 0 0 0 0 0 0 0 0 0 0 0 0 0 0 0 0 0 0 0 0 0 0 0 0 0 0 0 0 0 0 0 0 0 0 0 0 0 0 0 0 0 0
0 0 0 0 0 0 0 0 0 0 0 0 0 0 0 0 0 0 0 0 0 0 0 0 0 0 0 0 0 0 0 0 0 0 0 0 0 0 0 0 0 0 0 0 0 0 0 0 0
0 0 0 0 0 0 0 -0 -0 0 0 0 0 0 0 0 0 0 0 0 0 0 0 0 0 0 0 0 0 0 0 0 0 0 0 0 0 0 0 0 0 0 0 0 0 0 0 0 0
0 0 0 0 0 0 0 0 0 0 0 0 0 0 0 0 0 0 0 0 0 0 0 0 0 0 0 0 0 0 0 0 0 0 0 0 0 0 0 0 0 0 0 0 0 0 0 0 0
0 0 0 0 0 0 0 0 0 0 0 0 0 0 0 0 0 0 0 0 0 0 0 0 0 0 0 0 0 0 0 0 0 0 0 0 0 0 0 0 0 0 0 0 0 0 0 0 0
0 0 0 0 0 0 0 0 0 -0 0 0 0 0 0 0 0 0 0 0 0 0 0 0 0 0 0 0 0 0 0 0 0 0 0 0 0 0 0 0 0 0 0 0 0 0 0 0 0
0 0 0 0 0 0 0 -0 0 0 0 0 0 0 0 0 0 0 0 0 0 0 0 0 0 0 0 0 0 0 0 0 0 0 0 0 0 0 0 0 0 0 0 0 0 0 0 0 0
0 0 0 0 0 0 0 0 -0 0 0 0 0 0 0 0 0 0 0 0 0 0 0 0 0 0 0 0 0 0 0 0 0 0 0 0 0 0 0 0 0 0 0 0 0 0 0 0 0
0 0 0 0 0 0 0 0 0 0 0 0 0 0 0 0 0 0 0 0 0 0 0 0 0 0 0 0 0 0 0 0 0 0 0 0 0 0 0 0 0 0 0 0 0 0 0 0 0
0 0 0 0 0 0 0 0 0 0 0 0 0 0 0 0 0 0 0 0 0 0 0 0 0 0 0 0 0 0 0 0 0 0 0 0 0 0 0 0 0 0 0 0 0 0 0 0 0
0 0 0 0 0 0 0 0 0 0 0 0 0 0 0 0 0 0 0 0 0 0 0 0 0 0 0 0 0 0 0 0 0 0 0 0 0 0 0 0 0 0 0 0 0 0 0 0 0
0 0 0 0 0 0 0 0 0 0 0 0 0 0 0 0 0 0 0 0 0 0 0 0 0 0 0 0 0 0 0 0 0 0 0 0 0 0 0 0 0 0 0 0 0 0 0 0 0
0 0 0 0 0 0 0 0 0 0 0 0 0 0 0 0 0 0 0 0 0 0 0 0 0 0 0 0 0 0 0 0 0 0 0 0 0 0 0 0 0 0 0 0 0 0 0 0 0
0 0 0 0 0 0 0 0 0 0 0 0 0 0 0 0 0 0 0 0 0 0 0 0 0 0 0 0 0 0 0 0 0 0 0 0 0 0 0 0 0 0 0 0 0 0 0 0 0
0 0 0 0 0 0 0 0 0 0 0 0 0 0 0 0 0 -0 -0 -0 -0 -0 -0 0 0 0 0 0 0 0 0 0 0 0 0 0 0 0 0 0 0 0 0 0 0 0 0 0 0
Wind_Speed_500mb
22 19 10 3 4 6 6 13 7 21 7 7 7 7 5 1 2 6 21 12 9 16 39 43 39 36 35 36 36 34 32 30 29 28 27 26 25 23 21 18 16 14 13 12 13 13 14 12 11
25 21 10 2 7 3 9 11 16 19 34 17 3 3 6 3 3 10 29 17 12 16 41 43 38 36 36 36 35 34 32 30 28 27 27 26 24 23 22 20 19 20 17 15 13 11 10 9 7
24 23 11 7 8 11 11 12 17 16 13 13 1 2 4 10 10 23 13 21 21 21 35 38 37 36 35 37 36 34 32 30 29 28 26 25 24 22 21 20 16 13 11 10 8 7 5 5 6
22 13 5 6 13 12 18 8 8 29 8 14 7 1 4 13 19 18 14 17 23 23 32 37 35 35 34 35 36 35 33 30 29 27 27 26 25 23 20 18 15 12 9 8 7 7 6 6 5
23 9 3 7 12 12 10 23 37 15 8 9 12 7 5 12 12 14 17 21 27 25 26 36 35 34 35 35 34 33 32 30 29 28 27 27 25 22 19 15 12 10 7 6 7 6 6 5 5
9 4 3 18 11 10 19 30 23 25 24 10 12 11 7 11 17 18 24 28 25 22 29 35 37 37 36 35 34 33 31 30 29 28 27 24 22 18 16 14 12 9 7 6 6 6 7 9 11
8 7 9 7 9 10 13 32 13 37 29 18 9 5 3 23 18 24 24 28 28 20 25 32 38 39 38 36 36 36 35 35 32 29 24 22 20 18 16 13 11 10 9 9 9 9 10 10 11
7 6 5 7 7 11 5 25 17 17 19 15 11 7 6 22 27 23 26 32 33 25 24 34 36 40 40 40 39 39 38 35 33 26 20 20 19 18 16 14 13 13 12 11 12 12 13 15 18
14 2 6 9 9 10 17 17 20 24 6 9 4 6 10 13 29 28 29 30 31 32 34 32 36 42 44 44 41 39 37 36 35 28 23 22 20 19 17 17 16 16 15 14 15 17 19 19 19
10 7 12 10 6 6 20 10 27 17 22 12 18 6 9 11 26 34 35 37 36 43 44 40 40 45 47 46 44 42 44 43 38 31 28 25 23 22 20 19 18 17 16 18 18 16 16 17 18
10 10 8 19 29 24 19 24 11 7 11 6 11 13 5 17 30 32 37 37 39 40 41 40 38 43 44 46 46 46 46 46 40 36 31 28 26 24 21 19 18 18 17 15 13 14 15 16 16
9 21 18 18 33 17 11 26 15 30 32 36 35 26 10 20 31 41 42 47 42 41 41 40 39 38 43 41 42 47 53 49 45 41 37 32 27 24 23 21 20 19 16 13 13 15 15 14 14
6 11 22 27 33 29 26 31 23 35 44 46 50 45 33 23 25 33 41 36 39 45 46 50 49 46 43 46 45 47 53 53 48 44 38 36 27 25 25 23 21 19 16 15 14 15 15 13 12
19 26 28 29 37 40 18 21 4 32 42 48 46 52 42 34 32 31 31 36 39 45 54 58 58 53 46 49 54 53 52 49 48 42 38 35 28 27 27 25 21 19 17 16 14 14 13 12 11
16 14 16 15 24 12 6 17 16 56 41 31 32 43 46 51 41 44 40 37 45 45 47 54 60 61 57 54 54 55 52 51 51 45 40 32 29 39 30 25 23 20 18 17 15 14 13 11 10
5 4 8 6 9 10 13 16 10 21 14 31 34 39 35 40 48 48 44 45 41 45 51 48 56 61 64 59 66 61 55 57 51 48 40 37 37 34 31 27 25 21 20 18 17 14 13 12 10
6 4 6 14 10 8 8 16 19 48 28 36 47 48 50 43 35 42 52 51 57 53 53 53 48 57 66 61 58 64 59 61 52 51 49 40 47 41 32 30 27 23 22 19 17 15 14 12 10
5 5 8 11 11 21 19 16 22 38 40 48 59 61 52 42 37 33 31 39 49 56 59 55 50 51 58 52 60 65 64 65 62 60 51 47 43 38 35 32 28 25 23 21 19 17 15 12 9
4 7 11 11 13 6 9 18 33 34 34 41 52 37 23 20 19 25 33 35 30 39 61 64 61 56 52 52 62 69 70 68 62 57 53 51 43 41 37 33 30 27 24 22 20 19 17 14 10
10 11 13 14 4 4 8 24 20 17 32 41 47 50 53 52 38 17 12 17 23 27 42 67 67 62 53 53 59 79 75 71 65 63 59 52 46 43 39 35 32 28 26 24 22 21 20 18 16
7 9 7 12 10 6 9 12 7 13 44 47 49 50 59 65 72 63 37 22 9 21 39 64 70 64 56 53 59 74 70 67 67 68 62 55 52 46 41 37 34 30 28 25 24 24 23 22 20
5 7 7 8 9 3 8 7 8 12 21 24 37 49 54 63 70 71 63 44 25 11 33 52 65 65 59 56 58 65 71 78 80 76 68 58 58 49 44 39 36 32 29 27 26 26 25 25 25
12 3 3 4 3 8 7 8 9 10 14 20 32 47 56 65 72 74 66 57 44 26 17 35 54 67 66 59 58 60 69 73 77 74 65 60 58 52 46 42 38 34 31 28 27 28 26 27 27
5 4 11 8 5 5 8 8 8 8 20 12 27 45 58 70 74 73 72 64 56 39 25 4 38 56 68 66 63 63 67 72 79 76 71 70 61 56 49 44 40 36 32 28 29 29 29 28 28
5 10 5 8 6 10 3 6 4 19 17 15 18 37 54 66 71 72 75 76 71 62 45 23 4 37 55 66 69 66 67 68 74 72 70 66 68 61 54 46 41 36 33 29 29 30 30 29 28
9 12 10 12 7 7 5 8 9 16 25 31 32 40 55 64 67 67 65 66 67 65 58 42 16 14 38 52 63 68 69 65 67 71 68 66 68 63 53 46 42 39 34 30 28 29 29 28 28
5 7 5 11 3 6 6 11 5 10 11 20 23 41 50 55 60 61 61 61 60 60 57 54 41 20 16 32 44 60 67 65 62 63 67 65 64 62 56 49 45 41 35 30 28 27 27 27 27
5 3 3 5 3 10 7 11 9 20 9 7 13 27 37 44 49 51 51 54 55 55 52 46 43 36 24 25 29 41 55 62 59 60 62 65 65 61 59 54 49 44 37 31 27 25 24 24 25
7 4 3 4 8 11 4 10 6 27 13 11 11 14 27 38 45 46 45 42 46 52 53 50 45 43 32 23 29 31 40 54 57 60 57 60 63 63 62 58 52 47 39 33 28 24 22 22 24
3 1 4 7 11 5 4 12 25 24 17 19 10 14 25 39 44 43 43 43 47 48 54 55 52 45 40 31 26 31 33 45 53 59 55 56 61 65 64 60 55 50 43 37 31 24 21 21 25
Wind_Direction_500mb
222 217 233 240 52 65 240 250 269 286 314 240 164 113 181 195 218 216 155 166 182 191 173 170 170 168 166 164 164 164 163 160 156 154 154 156 157 157 157 156 151 146 139 138 148 152 158 171 181
214 203 218 144 121 186 260 252 264 257 258 269 207 116 96 115 130 178 172 176 181 176 170 169 170 167 166 165 164 164 163 162 160 160 160 157 157 157 154 150 146 140 141 141 143 151 161 173 195
199 186 163 155 181 186 222 233 241 296 255 229 269 46 101 139 155 172 200 168 177 177 178 174 170 169 167 165 165 165 165 164 163 164 162 159 159 158 155 155 158 162 160 154 159 168 188 209 227
182 177 189 160 231 248 222 203 307 327 313 171 171 189 118 161 166 180 187 190 186 178 183 181 176 174 171 168 166 168 169 169 169 167 165 164 162 162 163 163 165 171 168 157 172 185 196 219 243
170 152 188 225 239 261 253 259 271 279 254 233 187 196 173 187 202 197 194 197 201 183 182 184 179 177 173 172 170 169 168 169 171 170 171 169 169 166 168 173 179 188 187 182 181 189 205 222 248
170 160 156 229 232 243 280 277 272 250 250 220 194 174 188 187 182 194 202 198 198 197 187 188 181 180 177 176 176 174 171 172 174 174 178 174 173 174 178 182 189 196 197 199 206 223 239 254 262
155 113 213 210 242 263 250 287 225 244 219 224 142 135 207 191 199 192 195 200 190 202 204 186 188 183 182 179 177 175 176 180 180 183 183 180 179 182 188 193 203 213 220 228 239 248 257 265 275
219 113 224 227 225 269 320 338 318 202 219 203 202 192 227 223 193 188 194 193 195 200 199 197 196 189 188 186 186 183 185 188 187 188 187 186 191 193 197 203 210 217 222 231 242 252 265 274 277
213 52 233 222 196 249 6 11 332 325 279 274 252 200 284 242 193 196 195 202 202 195 204 207 205 198 194 193 194 193 195 199 200 199 201 202 203 208 209 213 215 218 224 234 251 263 268 272 274
168 169 218 229 236 305 319 338 321 332 333 281 259 340 218 189 199 204 206 207 209 211 200 204 210 207 202 199 200 203 204 206 204 208 211 210 213 216 215 217 220 224 237 252 259 263 268 273 276
208 209 218 271 278 305 308 312 313 283 288 258 334 16 215 212 211 217 211 218 221 220 212 204 214 212 212 209 207 206 210 209 211 215 213 216 217 218 222 223 232 246 255 253 256 265 271 275 277
292 243 222 256 268 279 273 293 278 278 256 279 289 298 315 251 229 231 228 228 220 220 217 226 235 225 219 215 219 217 209 219 214 217 214 213 220 226 227 234 247 254 248 254 269 277 281 278 273
267 322 324 304 306 296 282 266 260 260 271 278 279 284 279 282 253 234 235 232 230 227 231 235 233 236 232 222 226 228 229 227 216 218 210 216 216 234 237 244 247 241 246 257 268 280 280 275 274
315 305 304 309 301 286 265 264 284 273 267 269 278 284 282 274 256 255 241 231 228 235 236 232 230 235 236 230 229 227 232 227 211 206 209 219 221 247 247 247 240 240 251 262 271 278 274 271 275
294 316 320 271 273 259 232 301 232 273 286 287 296 298 282 269 261 251 256 255 236 239 247 235 231 230 233 229 234 234 233 212 207 207 217 217 230 246 244 242 238 243 255 263 272 272 268 266 272
321 342 322 288 307 271 147 270 294 305 309 289 296 310 321 278 263 258 257 258 251 243 246 238 237 233 233 233 224 228 231 208 209 211 208 233 241 247 247 240 239 245 254 262 270 269 266 267 277
358 250 278 316 4 31 16 299 305 309 313 297 303 303 307 308 277 267 265 262 256 253 244 243 241 235 235 234 233 228 223 209 214 219 210 217 239 240 239 238 240 246 253 262 266 263 261 265 271
176 235 259 268 296 337 318 283 302 307 315 308 303 300 297 297 295 276 274 263 258 249 246 245 250 244 240 238 233 223 222 211 211 222 223 221 230 236 235 237 241 246 254 260 265 261 257 259 260
211 241 250 254 259 261 288 294 293 301 296 287 295 316 7 14 328 302 275 273 276 257 248 242 238 239 238 237 227 222 220 209 208 219 226 225 226 232 234 237 241 246 253 260 261 261 259 253 235
231 249 270 293 277 309 296 287 306 23 45 53 68 55 46 45 39 15 320 289 259 252 257 237 236 236 242 238 235 224 219 213 211 214 220 226 226 230 233 238 241 246 254 260 261 260 258 252 234
226 225 242 251 325 296 325 320 27 65 63 61 56 55 48 44 42 38 29 19 345 246 242 239 233 235 238 240 233 228 220 221 216 216 218 225 227 228 232 237 240 245 252 259 261 261 260 257 244
264 223 225 281 25 247 50 278 328 94 68 55 42 38 35 37 41 39 35 28 14 321 248 237 233 235 240 242 238 238 233 223 220 218 220 219 225 228 231 235 240 244 252 259 262 262 261 262 253
225 154 259 280 327 6 337 97 262 141 75 55 50 40 36 37 37 34 34 32 29 12 320 246 237 235 238 243 243 243 234 233 231 225 226 228 226 227 230 234 239 243 250 257 263 265 264 262 252
156 66 39 42 100 16 245 152 275 190 132 89 66 47 41 36 35 35 34 33 31 27 24 280 225 241 243 241 243 244 243 236 231 228 226 226 228 230 231 233 238 240 247 256 263 267 268 262 249
112 66 331 352 4 219 82 148 349 76 75 84 79 48 37 32 31 29 27 27 27 25 20 26 241 235 244 245 244 247 247 245 241 237 234 234 234 231 233 235 240 241 246 256 264 268 267 258 243
177 158 162 224 195 253 249 222 149 101 88 67 79 50 35 30 27 24 23 24 24 23 19 13 3 249 245 251 249 249 249 250 248 243 241 242 243 240 237 237 237 237 244 255 261 265 262 250 237
209 176 183 101 30 67 216 95 116 122 67 53 75 46 33 25 24 19 15 18 18 20 20 13 360 329 273 251 255 255 254 251 253 251 246 241 244 242 237 237 237 237 242 249 254 260 255 242 231
172 179 65 357 189 239 253 195 205 160 130 62 66 45 27 19 14 14 14 9 10 13 13 12 8 353 317 274 258 251 257 255 257 254 249 243 241 241 237 235 234 234 238 243 247 252 245 234 224
350 338 10 177 164 187 202 244 185 137 136 100 103 28 14 14 7 8 9 8 1 360 4 5 3 0 344 298 270 255 251 255 256 254 252 247 243 240 236 234 233 233 235 236 237 241 233 221 212
77 325 124 153 251 259 166 260 145 139 126 78 75 1 356 360 360 1 2 2 358 353 351 355 358 356 352 333 290 262 246 252 255 254 252 247 242 238 236 233 231 231 231 230 228 229 222 212 205
Wind_Speed_850mb
22 19 10 3 4 6 6 13 7 21 7 7 7 7 5 1 2 6 21 12 9 16 39 43 39 36 35 36 36 34 32 30 29 28 27 26 25 23 21 18 16 14 13 12 13 13 14 12 11
25 21 10 2 7 3 9 11 16 19 34 17 3 3 6 3 3 10 29 17 12 16 41 43 38 36 36 36 35 34 32 30 28 27 27 26 24 23 22 20 19 20 17 15 13 11 10 9 7
24 23 11 7 8 11 11 12 17 16 13 13 1 2 4 10 10 23 13 21 21 21 35 38 37 36 35 37 36 34 32 30 29 28 26 25 24 22 21 20 16 13 11 10 8 7 5 5 6
22 13 5 6 13 12 18 8 8 29 8 14 7 1 4 13 19 18 14 17 23 23 32 37 35 35 34 35 36 35 33 30 29 27 27 26 25 23 20 18 15 12 9 8 7 7 6 6 5
23 9 3 7 12 12 10 23 37 15 8 9 12 7 5 12 12 14 17 21 27 25 26 36 35 34 35 35 34 33 32 30 29 28 27 27 25 22 19 15 12 10 7 6 7 6 6 5 5
9 4 3 18 11 10 19 30 23 25 24 10 12 11 7 11 17 18 24 28 25 22 29 35 37 37 36 35 34 33 31 30 29 28 27 24 22 18 16 14 12 9 7 6 6 6 7 9 11
8 7 9 7 9 10 13 32 13 37 29 18 9 5 3 23 18 24 24 28 28 20 25 32 38 39 38 36 36 36 35 35 32 29 24 22 20 18 16 13 11 10 9 9 9 9 10 10 11
7 6 5 7 7 11 5 25 17 17 19 15 11 7 6 22 27 23 26 32 33 25 24 34 36 40 40 40 39 39 38 35 33 26 20 20 19 18 16 14 13 13 12 11 12 12 13 15 18
14 2 6 9 9 10 17 17 20 24 6 9 4 6 10 13 29 28 29 30 31 32 34 32 36 42 44 44 41 39 37 36 35 28 23 22 20 19 17 17 16 16 15 14 15 17 19 19 19
10 7 12 10 6 6 20 10 27 17 22 12 18 6 9 11 26 34 35 37 36 43 44 40 40 45 47 46 44 42 44 43 38 31 28 25 23 22 20 19 18 17 16 18 18 16 16 17 18
10 10 8 19 29 24 19 24 11 7 11 6 11 13 5 17 30 32 37 37 39 40 41 40 38 43 44 46 46 46 46 46 40 36 31 28 26 24 21 19 18 18 17 15 13 14 15 16 16
9 21 18 18 33 17 11 26 15 30 32 36 35 26 10 20 31 41 42 47 42 41 41 40 39 38 43 41 42 47 53 49 45 41 37 32 27 24 23 21 20 19 16 13 13 15 15 14 14
6 11 22 27 33 29 26 31 23 35 44 46 50 45 33 23 25 33 41 36 39 45 46 50 49 46 43 46 45 47 53 53 48 44 38 36 27 25 25 23 21 19 16 15 14 15 15 13 12
19 26 28 29 37 40 18 21 4 32 42 48 46 52 42 34 32 31 31 36 39 45 54 58 58 53 46 49 54 53 52 49 48 42 38 35 28 27 27 25 21 19 17 16 14 14 13 12 11
16 14 16 15 24 12 6 17 16 56 41 31 32 43 46 51 41 44 40 37 45 45 47 54 60 61 57 54 54 55 52 51 51 45 40 32 29 39 30 25 23 20 18 17 15 14 13 11 10
5 4 8 6 9 10 13 16 10 21 14 31 34 39 35 40 48 48 44 45 41 45 51 48 56 61 64 59 66 61 55 57 51 48 40 37 37 34 31 27 25 21 20 18 17 14 13 12 10
6 4 6 14 10 8 8 16 19 48 28 36 47 48 50 43 35 42 52 51 57 53 53 53 48 57 66 61 58 64 59 61 52 51 49 40 47 41 32 30 27 23 22 19 17 15 14 12 10
5 5 8 11 11 21 19 16 22 38 40 48 59 61 52 42 37 33 31 39 49 56 59 55 50 51 58 52 60 65 64 65 62 60 51 47 43 38 35 32 28 25 23 21 19 17 15 12 9
4 7 11 11 13 6 9 18 33 34 34 41 52 37 23 20 19 25 33 35 30 39 61 64 61 56 52 52 62 69 70 68 62 57 53 51 43 41 37 33 30 27 24 22 20 19 17 14 10
10 11 13 14 4 4 8 24 20 17 32 41 47 50 53 52 38 17 12 17 23 27 42 67 67 62 53 53 59 79 75 71 65 63 59 52 46 43 39 35 32 28 26 24 22 21 20 18 16
7 9 7 12 10 6 9 12 7 13 44 47 49 50 59 65 72 63 37 22 9 21 39 64 70 64 56 53 59 74 70 67 67 68 62 55 52 46 41 37 34 30 28 25 24 24 23 22 20
5 7 7 8 9 3 8 7 8 12 21 24 37 49 54 63 70 71 63 44 25 11 33 52 65 65 59 56 58 65 71 78 80 76 68 58 58 49 44 39 36 32 29 27 26 26 25 25 25
12 3 3 4 3 8 7 8 9 10 14 20 32 47 56 65 72 74 66 57 44 26 17 35 54 67 66 59 58 60 69 73 77 74 65 60 58 52 46 42 38 34 31 28 27 28 26 27 27
5 4 11 8 5 5 8 8 8 8 20 12 27 45 58 70 74 73 72 64 56 39 25 4 38 56 68 66 63 63 67 72 79 76 71 70 61 56 49 44 40 36 32 28 29 29 29 28 28
5 10 5 8 6 10 3 6 4 19 17 15 18 37 54 66 71 72 75 76 71 62 45 23 4 37 55 66 69 66 67 68 74 72 70 66 68 61 54 46 41 36 33 29 29 30 30 29 28
9 12 10 12 7 7 5 8 9 16 25 31 32 40 55 64 67 67 65 66 67 65 58 42 16 14 38 52 63 68 69 65 67 71 68 66 68 63 53 46 42 39 34 30 28 29 29 28 28
5 7 5 11 3 6 6 11 5 10 11 20 23 41 50 55 60 61 61 61 60 60 57 54 41 20 16 32 44 60 67 65 62 63 67 65 64 62 56 49 45 41 35 30 28 27 27 27 27
5 3 3 5 3 10 7 11 9 20 9 7 13 27 37 44 49 51 51 54 55 55 52 46 43 36 24 25 29 41 55 62 59 60 62 65 65 61 59 54 49 44 37 31 27 25 24 24 25
7 4 3 4 8 11 4 10 6 27 13 11 11 14 27 38 45 46 45 42 46 52 53 50 45 43 32 23 29 31 40 54 57 60 57 60 63 63 62 58 52 47 39 33 28 24 22 22 24
3 1 4 7 11 5 4 12 25 24 17 19 10 14 25 39 44 43 43 43 47 48 54 55 52 45 40 31 26 31 33 45 53 59 55 56 61 65 64 60 55 50 43 37 31 24 21 21 25
Wind_Direction_850mb
222 217 233 240 52 65 240 250 269 286 314 240 164 113 181 195 218 216 155 166 182 191 173 170 170 168 166 164 164 164 163 160 156 154 154 156 157 157 157 156 151 146 139 138 148 152 158 171 181
214 203 218 144 121 186 260 252 264 257 258 269 207 116 96 115 130 178 172 176 181 176 170 169 170 167 166 165 164 164 163 162 160 160 160 157 157 157 154 150 146 140 141 141 143 151 161 173 195
199 186 163 155 181 186 222 233 241 296 255 229 269 46 101 139 155 172 200 168 177 177 178 174 170 169 167 165 165 165 165 164 163 164 162 159 159 158 155 155 158 162 160 154 159 168 188 209 227
182 177 189 160 231 248 222 203 307 327 313 171 171 189 118 161 166 180 187 190 186 178 183 181 176 174 171 168 166 168 169 169 169 167 165 164 162 162 163 163 165 171 168 157 172 185 196 219 243
170 152 188 225 239 261 253 259 271 279 254 233 187 196 173 187 202 197 194 197 201 183 182 184 179 177 173 172 170 169 168 169 171 170 171 169 169 166 168 173 179 188 187 182 181 189 205 222 248
170 160 156 229 232 243 280 277 272 250 250 220 194 174 188 187 182 194 202 198 198 197 187 188 181 180 177 176 176 174 171 172 174 174 178 174 173 174 178 182 189 196 197 199 206 223 239 254 262
155 113 213 210 242 263 250 287 225 244 219 224 142 135 207 191 199 192 195 200 190 202 204 186 188 183 182 179 177 175 176 180 180 183 183 180 179 182 188 193 203 213 220 228 239 248 257 265 275
219 113 224 227 225 269 320 338 318 202 219 203 202 192 227 223 193 188 194 193 195 200 199 197 196 189 188 186 186 183 185 188 187 188 187 186 191 193 197 203 210 217 222 231 242 252 265 274 277
213 52 233 222 196 249 6 11 332 325 279 274 252 200 284 242 193 196 195 202 202 195 204 207 205 198 194 193 194 193 195 199 200 199 201 202 203 208 209 213 215 218 224 234 251 263 268 272 274
168 169 218 229 236 305 319 338 321 332 333 281 259 340 218 189 199 204 206 207 209 211 200 204 210 207 202 199 200 203 204 206 204 208 211 210 213 216 215 217 220 224 237 252 259 263 268 273 276
208 209 218 271 278 305 308 312 313 283 288 258 334 16 215 212 211 217 211 218 221 220 212 204 214 212 212 209 207 206 210 209 211 215 213 216 217 218 222 223 232 246 255 253 256 265 271 275 277
292 243 222 256 268 279 273 293 278 278 256 279 289 298 315 251 229 231 228 228 220 220 217 226 235 225 219 215 219 217 209 219 214 217 214 213 220 226 227 234 247 254 248 254 269 277 281 278 273
267 322 324 304 306 296 282 266 260 260 271 278 279 284 279 282 253 234 235 232 230 227 231 235 233 236 232 222 226 228 229 227 216 218 210 216 216 234 237 244 247 241 246 257 268 280 280 275 274
315 305 304 309 301 286 265 264 284 273 267 269 278 284 282 274 256 255 241 231 228 235 236 232 230 235 236 230 229 227 232 227 211 206 209 219 221 247 247 247 240 240 251 262 271 278 274 271 275
294 316 320 271 273 259 232 301 232 273 286 287 296 298 282 269 261 251 256 255 236 239 247 235 231 230 233 229 234 234 233 212 207 207 217 217 230 246 244 242 238 243 255 263 272 272 268 266 272
321 342 322 288 307 271 147 270 294 305 309 289 296 310 321 278 263 258 257 258 251 243 246 238 237 233 233 233 224 228 231 208 209 211 208 233 241 247 247 240 239 245 254 262 270 269 266 267 277
358 250 278 316 4 31 16 299 305 309 313 297 303 303 307 308 277 267 265 262 256 253 244 243 241 235 235 234 233 228 223 209 214 219 210 217 239 240 239 238 240 246 253 262 266 263 261 265 271
176 235 259 268 296 337 318 283 302 307 315 308 303 300 297 297 295 276 274 263 258 249 246 245 250 244 240 238 233 223 222 211 211 222 223 221 230 236 235 237 241 246 254 260 265 261 257 259 260
211 241 250 254 259 261 288 294 293 301 296 287 295 316 7 14 328 302 275 273 276 257 248 242 238 239 238 237 227 222 220 209 208 219 226 225 226 232 234 237 241 246 253 260 261 261 259 253 235
231 249 270 293 277 309 296 287 306 23 45 53 68 55 46 45 39 15 320 289 259 252 257 237 236 236 242 238 235 224 219 213 211 214 220 226 226 230 233 238 241 246 254 260 261 260 258 252 234
226 225 242 251 325 296 325 320 27 65 63 61 56 55 48 44 42 38 29 19 345 246 242 239 233 235 238 240 233 228 220 221 216 216 218 225 227 228 232 237 240 245 252 259 261 261 260 257 244
264 223 225 281 25 247 50 278 328 94 68 55 42 38 35 37 41 39 35 28 14 321 248 237 233 235 240 242 238 238 233 223 220 218 220 219 225 228 231 235 240 244 252 259 262 262 261 262 253
225 154 259 280 327 6 337 97 262 141 75 55 50 40 36 37 37 34 34 32 29 12 320 246 237 235 238 243 243 243 234 233 231 225 226 228 226 227 230 234 239 243 250 257 263 265 264 262 252
156 66 39 42 100 16 245 152 275 190 132 89 66 47 41 36 35 35 34 33 31 27 24 280 225 241 243 241 243 244 243 236 231 228 226 226 228 230 231 233 238 240 247 256 263 267 268 262 249
112 66 331 352 4 219 82 148 349 76 75 84 79 48 37 32 31 29 27 27 27 25 20 26 241 235 244 245 244 247 247 245 241 237 234 234 234 231 233 235 240 241 246 256 264 268 267 258 243
177 158 162 224 195 253 249 222 149 101 88 67 79 50 35 30 27 24 23 24 24 23 19 13 3 249 245 251 249 249 249 250 248 243 241 242 243 240 237 237 237 237 244 255 261 265 262 250 237
209 176 183 101 30 67 216 95 116 122 67 53 75 46 33 25 24 19 15 18 18 20 20 13 360 329 273 251 255 255 254 251 253 251 246 241 244 242 237 237 237 237 242 249 254 260 255 242 231
172 179 65 357 189 239 253 195 205 160 130 62 66 45 27 19 14 14 14 9 10 13 13 12 8 353 317 274 258 251 257 255 257 254 249 243 241 241 237 235 234 234 238 243 247 252 245 234 224
350 338 10 177 164 187 202 244 185 137 136 100 103 28 14 14 7 8 9 8 1 360 4 5 3 0 344 298 270 255 251 255 256 254 252 247 243 240 236 234 233 233 235 236 237 241 233 221 212
77 325 124 153 251 259 166 260 145 139 126 78 75 1 356 360 360 1 2 2 358 353 351 355 358 356 352 333 290 262 246 252 255 254 252 247 242 238 236 233 231 231 231 230 228 229 222 212 205